• Processing (Info)

  • MPEC 2013-L72 : 2013 LX28

    The following Minor Planet Electronic Circular may be linked-to from your own Web pages, but must not otherwise be redistributed electronically.

    A form allowing access to any MPEC is at the bottom of this page.


    Read MPEC 2013-L71 Read MPEC 2013-L73


    M.P.E.C. 2013-L72                                Issued 2013 June 15, 18:46 UT
    
         The Minor Planet Electronic Circulars contain information on unusual
             minor planets and routine data on comets.  They are published
       on behalf of Commission 20 of the International Astronomical Union by the
              Minor Planet Center, Smithsonian Astrophysical Observatory,
                              Cambridge, MA 02138, U.S.A.
    
                 Prepared using the Tamkin Foundation Computer Network
    
                                  MPC@CFA.HARVARD.EDU
                URL http://www.minorplanetcenter.net/    ISSN 1523-6714
    
                                       2013 LX28
    
    Observations:
         K13L28X* C2013 06 12.37049 16 11 33.368-20 36 00.45         20.7 wLEL072F51
         K13L28X  C2013 06 12.38136 16 11 28.968-20 36 35.00         21.0 wLEL072F51
         K13L28X  C2013 06 12.40307 16 11 20.190-20 37 43.32         20.9 wLEL072F51
         K13L28X KC2013 06 12.92550916 07 53.17 -21 04 43.5          21.0 VqEL072K91
         K13L28X KC2013 06 12.93240816 07 50.38 -21 05 05.0          21.2 VqEL072K91
         K13L28X KC2013 06 12.93467016 07 49.47 -21 05 11.9          21.3 VqEL072K91
         K13L28X KC2013 06 13.18927 16 06 09.56 -21 18 43.3                oEL072291
         K13L28X KC2013 06 13.19313 16 06 07.98 -21 18 55.5          20.8 RoEL072291
         K13L28X _C2013 06 13.42195016 04 36.525-21 30 38.97         21.0 RtEL072568
         K13L28X _C2013 06 13.42409116 04 35.659-21 30 45.45         21.1 RtEL072568
         K13L28X _C2013 06 13.42534716 04 35.164-21 30 49.32         21.0 RtEL072568
         K13L28X KC2013 06 15.29333 15 52 18.63 -23 04 13.1          21.1 RoEL072291
         K13L28X KC2013 06 15.29578 15 52 17.69 -23 04 20.1          21.2 RoEL072291
    
    Observer details:
    291 LPL/Spacewatch II.  Observers T. H. Bressi, R. S. McMillan.  1.8-m f/2.7
        reflector + CCD.
    568 Mauna Kea.  Observers R. J. Wainscoat, M. Micheli, A. Draginda.  Measurer
        M. Micheli.  3.6-m Canada-France-Hawaii Telescope + CCD.
    F51 Pan-STARRS 1, Haleakala.  Observers N. Primak, A. Schultz, S. Watters,
        T. Goggia.  Measurer PS1 Science Consortium.  1.8-m Ritchey-Chretien
        + CCD.
    K91 Sutherland-LCOGT A.  Observer T. Lister.  1.0-m f/8 Ritchey-Chretien + CCD.
    
    Orbital elements:
    2013 LX28                                                Earth MOID = 0.3772 AU
    Epoch 2013 Apr. 18.0 TT = JDT 2456400.5                 MPC
    M 158.35090              (2000.0)            P               Q
    n   0.98007000     Peri.  345.76520     +0.37616498     -0.54453361
    a   1.0037633      Node    76.66074     +0.90749436     +0.05326836
    e   0.4513604      Incl.   50.39351     +0.18695960     +0.83704577
    P   1.01           H   21.5           G   0.15           U   8
    Residuals in seconds of arc
    130612 F51  0.0   0.1+    130612 K91  0.1-  0.1+    130613 568  0.2+  0.0
    130612 F51  0.0   0.1-    130613 291  0.3+  0.0     130615 291  0.3-  0.0
    130612 F51  0.1+  0.0     130613 291  0.1-  0.2-    130615 291  0.3+  0.1+
    130612 K91  0.1-  0.0     130613 568  0.0   0.1-
    130612 K91  0.2-  0.0     130613 568  0.0   0.0
    
    Ephemeris:
    2013 LX28                a,e,i = 1.00, 0.45, 50                  q = 0.5507
    Date    TT    R. A. (2000) Decl.     Delta      r     Elong.  Phase     V
    2013 05 16    18 26 25.9 +00 35 11   0.5660  1.4557   132.7    30.7    22.4
    ...
    2013 05 31    17 27 12.4 -09 21 15   0.4450  1.4431   161.7    12.8    21.3
    ...
    2013 06 08    16 40 04.3 -16 37 27   0.4187  1.4305   171.6     6.0    20.9
    ...
    2013 06 14    16 00 48.7 -21 59 49   0.4215  1.4184   159.6    14.5    21.2
    2013 06 15    15 54 14.5 -22 49 35   0.4239  1.4161   157.2    16.1    21.3
    2013 06 16    15 47 43.0 -23 37 50   0.4267  1.4138   154.9    17.8    21.3
    ...
    2013 06 22    15 10 24.1 -27 50 43   0.4534  1.3986   141.2    27.1    21.7
    ...
    2013 06 30    14 28 40.4 -31 51 47   0.5089  1.3747   125.3    37.1    22.2
    ...
    2013 07 15    13 38 51.2 -36 18 07   0.6432  1.3185   102.9    48.7    23.0
    
    A. U. Tomatic                (C) Copyright 2013 MPC           M.P.E.C. 2013-L72
    

    Read MPEC 2013-L71 Read MPEC 2013-L73


    MPEC number:

    Enter an MPEC number in one of the following forms:

    • 1997-B01 (the full form)
    • J97B01 (the packed version of the full form)
    • B01 (the abbreviated form)